Regional Weather Roundup
Issued by NWS

Home | Current Version | Previous Version | Graphics & Text | Print | Product List | Glossary On
Versions: 1 2 3 4 5 6 7 8 9 10 11 12 13 14 15 16 17 18 19 20 21 22 23 24 25 26 27 28 29 30 31 32 33 34 35 36 37 38 39 40 41 42 43 44 45 46 47 48 49 50
000
ASUS43 KFSD 232102
RWRSD

WEATHER ROUNDUP FOR SOUTH DAKOTA
NATIONAL WEATHER SERVICE SIOUX FALLS SD
400 PM CDT SAT JUL 23 2016

NOTE: "FAIR" INDICATES FEW OR NO CLOUDS BELOW 12,000 FEET WITH NO
SIGNIFICANT WEATHER AND/OR OBSTRUCTIONS TO VISIBILITY.


SDZ001>005-009-010-012>017-232200-
NORTHWEST AND NORTH CENTRAL SOUTH DAKOTA

CITY           SKY/WX    TMP DP  RH WIND       PRES   REMARKS
BUFFALO          N/A     88  36  15 NW21G32   29.88S
FAITH            N/A     90  41  18 N22G32    29.89R
MOBRIDGE       PTSUNNY   87  66  49 NW21G26   29.79R
$$

SDZ012>016-024>037-041>051-057-063-072>074-232200-
SOUTHWEST AND SOUTH CENTRAL SOUTH DAKOTA

CITY           SKY/WX    TMP DP  RH WIND       PRES   REMARKS
RAPID CTY ARPT SUNNY     90  43  19 N23G31    29.94R
PIERRE         SUNNY     93  65  39 NW21G31   29.77R HX  95
CUSTER         SUNNY     86  26  11 VRB3      30.09S
ELLSWORTH AFB  SUNNY     88  42  19 N22G33    29.93R
PHILIP         SUNNY     94  48  20 N24G33    29.85R
PINE RIDGE     SUNNY     92  49  22 NE13G20   29.94F
WINNER         FAIR     100  58  24 NW21G29   29.78R HX  99
$$

SDZ004>011-016>023-039-040-232200-
NORTHEAST SOUTH DAKOTA

CITY           SKY/WX    TMP DP  RH WIND       PRES   REMARKS
ABERDEEN       PTSUNNY   90  73  57 CALM      29.72F HX  98
WATERTOWN      SUNNY     89  72  56 SW8       29.76F HX  96
BROOKINGS      CLOUDY    89  74  60 S10       29.76F HX  98
SISSETON         N/A     84  76  76 S9G21     29.72F
$$

SDZ017-020-022-023-036>040-048>070-232200-
SOUTHEAST SOUTH DAKOTA

CITY           SKY/WX    TMP DP  RH WIND       PRES   REMARKS
SIOUX FALLS    MOSUNNY   90  74  59 S10       29.75F HX  99
HURON          SUNNY     93  70  46 S9        29.71F HX  99
CHAMBERLAIN    SUNNY    100  68  35 NW15G23   29.74R HX 105
MITCHELL       SUNNY     94  72  48 VRB7      29.72F HX 102
YANKTON        MOSUNNY   93  72  49 S13       29.72S HX 100
$$

ABBREVIATIONS USED IN REMARKS
   TC - TEMPERATURE IN CELSIUS
  WCI - WIND CHILL INDEX
   HX - HEAT INDEX
  VSB - VISIBILITY





USA.gov is the U.S. government's official web portal to all federal, state and local government web resources and services.